Weather History for KIER - January, 2014

Change the Weather History Date:

Wednesday, January 22, 2014

  Actual Average Record
Temperature  
Mean Temperature 42 °F -  
Max Temperature 59 °F 56 °F 78 °F (2012)
Min Temperature 24 °F 39 °F 13 °F (1985)
Degree Days  
Heating Degree Days 24    
Moisture  
Dew Point 27 °F    
Average Humidity 61    
Maximum Humidity 94    
Minimum Humidity 29    
Precipitation  
Precipitation 0.00 in - - ()
Sea Level Pressure  
Sea Level Pressure 30.18 in    
Wind  
Wind Speed 1 mph (ESE)    
Max Wind Speed 9 mph    
Max Gust Speed -    
Visibility 10 miles    
Events      
Averages and records for this station are not official NWS values.
T = Trace of Precipitation, MM = Missing Value Source: NWS Daily Summary

Daily Weather History Graph

Daily Weather History Graph

Search for Another Location

Airport or City:

Trip Planner

Search our weather history database for the weather conditions in past years. The results will help you decide how hot, cold, wet, or windy it might be!

Date:

Astronomy

Jan. 22, 2014 Rise Set
Actual Time 7:10 AM CST 5:37 PM CST
Civil Twilight 6:44 AM CST 6:03 PM CST
Nautical Twilight 6:15 AM CST 6:33 PM CST
Astronomical Twilight 5:45 AM CST 7:02 PM CST
Moon 11:43 PM CST (1/22) 10:36 AM CST (1/22)
Length of Visible Light 11h 19m
Length of Day
10h 27m
Waning Gibbous, 65% of the Moon is Illuminated
Jan 22
Waning Gibbous
Jan 23
Last Quarter
Jan 30
New
Feb 6
First Quarter
Feb 14
Full

Hourly Weather History & Observations

Time (CST) Temp. Windchill Dew Point Humidity Pressure Visibility Wind Dir Wind Speed Gust Speed Precip Events Conditions
12:15 AM 28.2 °F - 21.6 °F 76% 30.25 in 10.0 mi Calm Calm - N/A   Clear
12:35 AM 28.9 °F - 22.5 °F 77% 30.25 in 10.0 mi Calm Calm - N/A   Clear
12:55 AM 27.5 °F - 23.2 °F 84% 30.25 in 10.0 mi Calm Calm - N/A   Clear
1:15 AM 27.5 °F - 24.3 °F 88% 30.25 in 10.0 mi Calm Calm - N/A   Clear
1:35 AM 27.5 °F - 22.6 °F 82% 30.25 in 10.0 mi Calm Calm - N/A   Clear
1:55 AM 27.1 °F - 23.4 °F 86% 30.25 in 10.0 mi Calm Calm - N/A   Clear
2:15 AM 26.8 °F - 23.5 °F 88% 30.25 in 10.0 mi Calm Calm - N/A   Clear
2:35 AM 27.3 °F - 22.1 °F 81% 30.24 in 10.0 mi Calm Calm - N/A   Clear
2:55 AM 27.5 °F - 22.8 °F 83% 30.24 in 10.0 mi Calm Calm - N/A   Clear
3:15 AM 26.8 °F - 23.5 °F 88% 30.24 in 10.0 mi Calm Calm - N/A   Clear
3:55 AM 25.7 °F - 22.5 °F 88% 30.23 in 10.0 mi Calm Calm - N/A   Clear
4:15 AM 25.2 °F - 21.7 °F 87% 30.23 in 10.0 mi Calm Calm - N/A   Clear
4:35 AM 26.2 °F - 22.6 °F 86% 30.22 in 10.0 mi Calm Calm - N/A   Clear
4:55 AM 25.7 °F - 23.0 °F 89% 30.22 in 10.0 mi Calm Calm - N/A   Clear
5:15 AM 25.2 °F - 22.1 °F 88% 30.22 in 10.0 mi Calm Calm - N/A   Clear
5:35 AM 24.8 °F - 22.1 °F 89% 30.21 in 10.0 mi Calm Calm - N/A   Clear
5:55 AM 25.0 °F - 23.4 °F 94% 30.21 in 10.0 mi Calm Calm - N/A   Clear
6:15 AM 25.0 °F - 23.0 °F 92% 30.21 in 10.0 mi Calm Calm - N/A   Clear
6:35 AM 24.8 °F - 22.5 °F 91% 30.22 in 10.0 mi Calm Calm - N/A   Clear
6:55 AM 25.7 °F - 23.2 °F 90% 30.22 in 10.0 mi Calm Calm - N/A   Clear
7:15 AM 25.2 °F - 23.7 °F 94% 30.22 in 10.0 mi Calm Calm - N/A   Clear
7:35 AM 25.7 °F - 23.9 °F 93% 30.22 in 10.0 mi Calm Calm - N/A   Clear
7:55 AM 28.2 °F - 23.9 °F 84% 30.23 in 10.0 mi Calm Calm - N/A   Clear
8:15 AM 31.1 °F - 24.3 °F 76% 30.24 in 10.0 mi Calm Calm - N/A   Clear
8:35 AM 32.0 °F - 25.0 °F 75% 30.24 in 10.0 mi Calm Calm - N/A   Clear
8:55 AM 34.0 °F 28.0 °F 25.3 °F 71% 30.24 in 10.0 mi SE 6.9 mph - N/A   Clear
9:15 AM 35.8 °F 28.8 °F 25.7 °F 67% 30.24 in 10.0 mi SSE 9.2 mph - N/A   Clear
9:35 AM 37.4 °F 32.1 °F 25.7 °F 63% 30.25 in 10.0 mi SE 6.9 mph - N/A   Clear
9:55 AM 39.4 °F 37.2 °F 25.3 °F 57% 30.25 in 10.0 mi SE 3.5 mph - N/A   Clear
10:15 AM 41.5 °F 37.8 °F 25.3 °F 53% 30.25 in 10.0 mi SE 5.8 mph - N/A   Clear
10:35 AM 42.8 °F - 25.2 °F 50% 30.25 in 10.0 mi Calm Calm - N/A   Clear
10:55 AM 45.3 °F 43.0 °F 25.7 °F 46% 30.24 in 10.0 mi ESE 4.6 mph - N/A   Clear
11:15 AM 47.5 °F - 25.7 °F 43% 30.24 in 10.0 mi SSE 3.5 mph - N/A   Clear
11:35 AM 49.5 °F - 25.0 °F 38% 30.22 in 10.0 mi ESE 3.5 mph - N/A   Clear
11:55 AM 50.5 °F - 24.8 °F 37% 30.21 in 10.0 mi East 4.6 mph - N/A   Clear
12:15 PM 51.8 °F - 26.2 °F 37% 30.20 in 10.0 mi ENE 3.5 mph - N/A   Clear
12:35 PM 52.5 °F - 26.4 °F 36% 30.18 in 10.0 mi East 4.6 mph - N/A   Clear
12:55 PM 53.6 °F - 26.2 °F 35% 30.17 in 10.0 mi East 3.5 mph - N/A   Clear
1:15 PM 54.5 °F - 26.4 °F 34% 30.16 in 10.0 mi SE 4.6 mph - N/A   Clear
1:35 PM 55.6 °F - 26.8 °F 33% 30.15 in 10.0 mi ESE 5.8 mph - N/A   Clear
1:55 PM 56.3 °F - 26.6 °F 32% 30.14 in 10.0 mi ENE 8.1 mph - N/A   Clear
2:15 PM 57.4 °F - 26.8 °F 31% 30.14 in 10.0 mi SE 4.6 mph - N/A   Clear
2:35 PM 57.9 °F - 26.1 °F 30% 30.13 in 10.0 mi ESE 3.5 mph - N/A   Clear
2:55 PM 58.5 °F - 26.8 °F 30% 30.12 in 10.0 mi East 4.6 mph - N/A   Clear
3:15 PM 58.5 °F - 27.0 °F 30% 30.12 in 10.0 mi East 3.5 mph - N/A   Clear
3:35 PM 59.2 °F - 26.8 °F 29% 30.12 in 10.0 mi East 5.8 mph - N/A   Clear
3:55 PM 59.5 °F - 27.5 °F 30% 30.11 in 10.0 mi ESE 5.8 mph - N/A   Clear
4:15 PM 59.5 °F - 27.9 °F 30% 30.11 in 10.0 mi ESE 8.1 mph - N/A   Clear
4:35 PM 58.1 °F - 28.2 °F 32% 30.11 in 10.0 mi ESE 8.1 mph - N/A   Clear
4:55 PM 56.5 °F - 28.0 °F 34% 30.12 in 10.0 mi ESE 6.9 mph - N/A   Clear
5:15 PM 54.9 °F - 28.8 °F 37% 30.12 in 10.0 mi ESE 5.8 mph - N/A   Clear
5:35 PM 53.2 °F - 29.7 °F 40% 30.11 in 10.0 mi ESE 4.6 mph - N/A   Clear
5:55 PM 52.3 °F - 30.0 °F 42% 30.11 in 10.0 mi ESE 4.6 mph - N/A   Clear
6:15 PM 51.4 °F - 29.8 °F 44% 30.12 in 10.0 mi Calm Calm - N/A   Clear
6:35 PM 51.4 °F - 29.7 °F 43% 30.12 in 10.0 mi ESE 3.5 mph - N/A   Clear
6:55 PM 50.4 °F - 30.2 °F 46% 30.12 in 10.0 mi Calm Calm - N/A   Clear
7:15 PM 50.0 °F - 30.2 °F 47% 30.12 in 10.0 mi Calm Calm - N/A   Clear
7:35 PM 48.2 °F - 30.7 °F 51% 30.12 in 10.0 mi Calm Calm - N/A   Clear
7:55 PM 45.9 °F - 31.5 °F 57% 30.13 in 10.0 mi Calm Calm - N/A   Clear
8:15 PM 44.6 °F - 31.3 °F 60% 30.13 in 10.0 mi Calm Calm - N/A   Clear
8:35 PM 46.2 °F - 31.1 °F 56% 30.13 in 10.0 mi Calm Calm - N/A   Clear
8:55 PM 45.5 °F - 31.8 °F 59% 30.14 in 10.0 mi Calm Calm - N/A   Clear
9:15 PM 44.6 °F - 31.8 °F 61% 30.14 in 10.0 mi Calm Calm - N/A   Clear
9:35 PM 43.9 °F - 31.8 °F 63% 30.14 in 10.0 mi Calm Calm - N/A   Clear
9:55 PM 44.6 °F - 32.0 °F 61% 30.14 in 10.0 mi Calm Calm - N/A   Clear
10:15 PM 45.0 °F - 32.0 °F 60% 30.15 in 10.0 mi Calm Calm - N/A   Clear
10:35 PM 44.8 °F - 32.9 °F 63% 30.15 in 10.0 mi Calm Calm - N/A   Clear
10:55 PM 45.0 °F - 32.4 °F 61% 30.16 in 10.0 mi Calm Calm - N/A   Clear
11:15 PM 45.1 °F - 33.1 °F 63% 30.16 in 10.0 mi Calm Calm - N/A   Clear
11:35 PM 44.8 °F - 33.8 °F 65% 30.16 in 10.0 mi Calm Calm - N/A   Clear
11:55 PM 44.1 °F - 34.5 °F 69% 30.16 in 10.0 mi Calm Calm - N/A   Clear